Location: Saint-Palais-sur-Mer
(45.6429°N, 1.0859°W)
Time: 00:23:32
(UTC+01:00)

S-56A Canister/Altair - Pass Details

Date: 11 February 2026
Orbit: 633 x 2484 km, 38.9° (Epoch: 11 March)

Event Time Altitude Azimuth Distance (km) Brightness Sun altitude
Exits shadow 05:48:59 39° 247° (WSW) 2,524 9.6 -25.6°
Maximum altitude 05:53:34 60° 188° (S) 2,239 9.7 -24.8°
Drops below altitude 10° 06:07:24 10° 114° (ESE) 5,050 12.6 -22.4°
Sets 06:11:37 0° 111° (ESE) 6,133 13.3 -21.6°
